| time (UTC) | temp C | wind direction | speed KPH | gust KPH | rain 1hr cm | rain 24hr cm | rain mn cm | humidity % | barometer mb |
| 20260906104731 | 23 | 357 | 1.6 | 3.2 | 0.00 | 0.00 | 0.00 | 95 | 1013.1 |
| 20260906104230 | 23 | 330 | 3.2 | 3.2 | 0.00 | 0.00 | 0.00 | 95 | 1013.0 |
| 20260906103727 | 23 | 4 | 3.2 | 3.2 | 0.00 | 0.00 | 0.00 | 95 | 1013.0 |
| 20260906103222 | 23 | 352 | 3.2 | 4.8 | 0.00 | 0.00 | 0.00 | 95 | 1013.0 |
| 20260906102718 | 23 | 326 | 4.8 | 6.4 | 0.00 | 0.00 | 0.00 | 95 | 1012.8 |
| 20260906102217 | 23 | 358 | 1.6 | 3.2 | 0.00 | 0.00 | 0.00 | 95 | 1012.8 |
| 20260906101712 | 23 | 336 | 3.2 | 3.2 | 0.00 | 0.00 | 0.00 | 95 | 1012.9 |
| 20260906101207 | 24 | 328 | 1.6 | 1.6 | 0.00 | 0.00 | 0.00 | 95 | 1012.7 |
| 20260906100702 | 24 | 21 | 6.4 | 6.4 | 0.00 | 0.00 | 0.00 | 95 | 1012.6 |
| 20260906100202 | 23 | 19 | 1.6 | 3.2 | 0.00 | 0.00 | 0.00 | 95 | 1012.7 |
| 20260906095657 | 24 | 5 | 1.6 | 1.6 | 0.00 | 0.00 | 0.00 | 94 | 1012.6 |
| 20260906095152 | 24 | 335 | 1.6 | 3.2 | 0.00 | 0.00 | 0.00 | 94 | 1012.5 |
| 20260906094651 | 24 | 335 | 1.6 | 1.6 | 0.00 | 0.00 | 0.00 | 93 | 1012.7 |
| 20260906094147 | 24 | 340 | 1.6 | 1.6 | 0.00 | 0.00 | 0.00 | 93 | 1012.6 |
| 20260906093643 | 24 | 346 | 0.0 | 1.6 | 0.00 | 0.00 | 0.00 | 93 | 1012.5 |
| 20260906093143 | 24 | 298 | 0.0 | 1.6 | 0.00 | 0.00 | 0.00 | 93 | 1012.6 |
| 20260906092638 | 24 | 352 | 0.0 | 1.6 | 0.00 | 0.00 | 0.00 | 93 | 1012.4 |
| 20260906092133 | 24 | 334 | 1.6 | 3.2 | 0.00 | 0.00 | 0.00 | 93 | 1012.7 |
| 20260906091629 | 24 | 318 | 0.0 | 1.6 | 0.00 | 0.00 | 0.00 | 93 | 1012.4 |
| 20260906091125 | 24 | 342 | 0.0 | 1.6 | 0.00 | 0.00 | 0.00 | 92 | 1012.4 |
| 20260906090620 | 24 | 351 | 1.6 | 1.6 | 0.00 | 0.00 | 0.00 | 92 | 1012.5 |
| 20260906090115 | 23 | 6 | 0.0 | 1.6 | 0.00 | 0.00 | 0.00 | 92 | 1012.5 |
| 20260906085614 | 23 | 7 | 1.6 | 1.6 | 0.00 | 0.00 | 0.00 | 92 | 1012.5 |
| 20260906085114 | 23 | 7 | 0.0 | 1.6 | 0.00 | 0.00 | 0.00 | 92 | 1012.4 |
| 20260906084609 | 24 | 7 | 0.0 | 0.0 | 0.00 | 0.00 | 0.00 | 92 | 1012.3 |
| 20260906084107 | 23 | 7 | 0.0 | 0.0 | 0.00 | 0.00 | 0.00 | 92 | 1012.5 |
| 20260906083603 | 23 | 7 | 0.0 | 0.0 | 0.00 | 0.00 | 0.00 | 92 | 1012.3 |
| 20260906083103 | 24 | 7 | 0.0 | 0.0 | 0.00 | 0.00 | 0.00 | 92 | 1012.5 |
| 20260906082559 | 23 | 7 | 0.0 | 1.6 | 0.00 | 0.00 | 0.00 | 92 | 1012.3 |
| 20260906082054 | 23 | 8 | 1.6 | 1.6 | 0.00 | 0.00 | 0.00 | 92 | 1012.3 |
| 20260906081550 | 24 | 8 | 0.0 | 0.0 | 0.00 | 0.00 | 0.00 | 91 | 1012.4 |
| 20260906081045 | 24 | 8 | 0.0 | 0.0 | 0.00 | 0.00 | 0.00 | 91 | 1012.3 |
| 20260906080542 | 24 | 8 | 1.6 | 1.6 | 0.00 | 0.00 | 0.00 | 91 | 1012.3 |
| 20260906080037 | 24 | 8 | 0.0 | 0.0 | 0.00 | 0.00 | 0.00 | 91 | 1012.2 |
| 20260906075537 | 24 | 8 | 0.0 | 0.0 | 0.00 | 0.00 | 0.00 | 91 | 1012.1 |
| 20260906075031 | 24 | 10 | 0.0 | 0.0 | 0.00 | 0.00 | 0.00 | 91 | 1012.2 |
| 20260906074526 | 24 | 10 | 0.0 | 0.0 | 0.00 | 0.00 | 0.00 | 91 | 1012.2 |
| 20260906074025 | 24 | 10 | 0.0 | 0.0 | 0.00 | 0.00 | 0.00 | 90 | 1012.4 |
| 20260906073520 | 24 | 10 | 1.6 | 1.6 | 0.00 | 0.00 | 0.00 | 91 | 1012.2 |
| 20260906073016 | 24 | 12 | 0.0 | 0.0 | 0.00 | 0.00 | 0.00 | 90 | 1012.2 |
| 20260906072511 | 24 | 12 | 0.0 | 0.0 | 0.00 | 0.00 | 0.00 | 91 | 1012.0 |
| 20260906072007 | 24 | 12 | 0.0 | 0.0 | 0.00 | 0.00 | 0.00 | 91 | 1012.1 |
| 20260906071503 | 24 | 12 | 0.0 | 0.0 | 0.00 | 0.00 | 0.00 | 91 | 1012.2 |
| 20260906070958 | 24 | 12 | 0.0 | 0.0 | 0.00 | 0.00 | 0.00 | 91 | 1012.1 |
| 20260906070455 | 24 | 12 | 0.0 | 0.0 | 0.00 | 0.00 | 0.00 | 91 | 1012.2 |
| 20260906065950 | 24 | 12 | 0.0 | 0.0 | 0.00 | 0.00 | 0.00 | 91 | 1012.3 |
| 20260906065449 | 24 | 12 | 0.0 | 0.0 | 0.00 | 0.00 | 0.00 | 91 | 1012.4 |
| 20260906064945 | 25 | 12 | 0.0 | 0.0 | 0.00 | 0.00 | 0.00 | 91 | 1012.4 |
| 20260906064442 | 25 | 12 | 0.0 | 0.0 | 0.00 | 0.00 | 0.00 | 90 | 1012.4 |
| 20260906063941 | 25 | 12 | 0.0 | 0.0 | 0.00 | 0.00 | 0.00 | 90 | 1012.4 |
| 20260906063437 | 25 | 12 | 0.0 | 0.0 | 0.00 | 0.00 | 0.00 | 90 | 1012.5 |
| 20260906062932 | 25 | 12 | 0.0 | 0.0 | 0.00 | 0.00 | 0.00 | 89 | 1012.5 |
| 20260906062427 | 25 | 12 | 0.0 | 0.0 | 0.00 | 0.00 | 0.00 | 88 | 1012.6 |
| 20260906061922 | 25 | 11 | 1.6 | 1.6 | 0.00 | 0.00 | 0.00 | 88 | 1012.6 |
| 20260906061418 | 25 | 53 | 0.0 | 0.0 | 0.00 | 0.00 | 0.00 | 87 | 1012.7 |
| 20260906060912 | 25 | 52 | 0.0 | 1.6 | 0.00 | 0.00 | 0.00 | 86 | 1012.7 |
| 20260906060410 | 25 | 53 | 0.0 | 0.0 | 0.00 | 0.00 | 0.00 | 85 | 1012.9 |
| 20260906055906 | 25 | 7 | 1.6 | 1.6 | 0.00 | 0.00 | 0.00 | 85 | 1012.8 |
| 20260906055401 | 25 | 289 | 0.0 | 1.6 | 0.00 | 0.00 | 0.00 | 85 | 1012.7 |
| 20260906054856 | 25 | 23 | 4.8 | 4.8 | 0.00 | 0.00 | 0.00 | 87 | 1012.6 |
| 20260906054351 | 25 | 183 | 0.0 | 0.0 | 0.00 | 0.00 | 0.00 | 86 | 1012.5 |
| 20260906053847 | 25 | 183 | 0.0 | 0.0 | 0.00 | 0.00 | 0.00 | 86 | 1012.5 |
| 20260906053343 | 25 | 183 | 0.0 | 0.0 | 0.00 | 0.00 | 0.00 | 85 | 1012.8 |
| 20260906052838 | 25 | 183 | 0.0 | 0.0 | 0.00 | 0.00 | 0.00 | 84 | 1012.9 |
| 20260906052335 | 25 | 183 | 0.0 | 0.0 | 0.00 | 0.00 | 0.00 | 83 | 1012.7 |
| 20260906051832 | 26 | 183 | 0.0 | 0.0 | 0.00 | 0.00 | 0.00 | 83 | 1012.7 |
| 20260906051331 | 26 | 183 | 0.0 | 0.0 | 0.00 | 0.00 | 0.00 | 82 | 1012.9 |
| 20260906050826 | 26 | 183 | 0.0 | 0.0 | 0.00 | 0.00 | 0.00 | 81 | 1012.7 |
| 20260906050321 | 26 | 187 | 0.0 | 1.6 | 0.00 | 0.00 | 0.00 | 80 | 1012.6 |
| 20260906045819 | 26 | 197 | 1.6 | 1.6 | 0.00 | 0.23 | 0.23 | 80 | 1012.7 |
| 20260906045314 | 26 | 192 | 1.6 | 1.6 | 0.00 | 0.23 | 0.23 | 81 | 1012.8 |
| 20260906044810 | 26 | 170 | 3.2 | 3.2 | 0.00 | 0.23 | 0.23 | 82 | 1012.7 |
| 20260906044305 | 26 | 176 | 1.6 | 1.6 | 0.00 | 0.23 | 0.23 | 81 | 1012.5 |
| 20260906043801 | 26 | 177 | 3.2 | 3.2 | 0.00 | 0.23 | 0.23 | 82 | 1012.5 |
| 20260906043257 | 26 | 182 | 0.0 | 0.0 | 0.00 | 0.23 | 0.23 | 82 | 1012.3 |
| 20260906042756 | 26 | 182 | 0.0 | 0.0 | 0.00 | 0.23 | 0.23 | 82 | 1012.4 |
| 20260906042255 | 26 | 182 | 0.0 | 0.0 | 0.00 | 0.23 | 0.23 | 80 | 1012.2 |
| 20260906041751 | 26 | 182 | 0.0 | 0.0 | 0.00 | 0.23 | 0.23 | 79 | 1012.2 |
| 20260906041246 | 26 | 181 | 0.0 | 0.0 | 0.00 | 0.23 | 0.23 | 80 | 1012.2 |
| 20260906040742 | 26 | 182 | 0.0 | 0.0 | 0.00 | 0.23 | 0.23 | 81 | 1012.1 |
| 20260906040237 | 26 | 181 | 0.0 | 0.0 | 0.00 | 0.23 | 0.23 | 82 | 1012.0 |
| 20260906035732 | 26 | 181 | 0.0 | 0.0 | 0.00 | 0.23 | 0.23 | 81 | 1012.2 |
| 20260906035228 | 26 | 181 | 0.0 | 0.0 | 0.00 | 0.23 | 0.23 | 80 | 1012.1 |
| 20260906034727 | 26 | 181 | 0.0 | 0.0 | 0.00 | 0.23 | 0.23 | 79 | 1012.0 |
| 20260906034223 | 26 | 181 | 0.0 | 0.0 | 0.00 | 0.23 | 0.23 | 79 | 1012.2 |
| 20260906033718 | 26 | 181 | 0.0 | 0.0 | 0.00 | 0.23 | 0.23 | 80 | 1012.1 |
| 20260906033218 | 26 | 181 | 0.0 | 0.0 | 0.00 | 0.23 | 0.23 | 79 | 1012.1 |
| 20260906032715 | 27 | 181 | 0.0 | 0.0 | 0.00 | 0.23 | 0.23 | 80 | 1011.9 |
| 20260906032215 | 27 | 182 | 0.0 | 0.0 | 0.00 | 0.23 | 0.23 | 80 | 1011.9 |
| 20260906031710 | 27 | 182 | 0.0 | 0.0 | 0.00 | 0.23 | 0.23 | 79 | 1012.0 |
| 20260906031205 | 27 | 182 | 0.0 | 0.0 | 0.00 | 0.23 | 0.23 | 78 | 1012.0 |
| 20260906030705 | 27 | 182 | 0.0 | 0.0 | 0.00 | 0.23 | 0.23 | 77 | 1012.1 |
| 20260906030201 | 27 | 182 | 0.0 | 0.0 | 0.00 | 0.23 | 0.23 | 77 | 1011.8 |
| 20260906025700 | 27 | 182 | 0.0 | 0.0 | 0.00 | 0.23 | 0.23 | 75 | 1011.9 |
| 20260906025159 | 27 | 182 | 0.0 | 0.0 | 0.00 | 0.23 | 0.23 | 76 | 1011.9 |
| 20260906024654 | 27 | 182 | 0.0 | 0.0 | 0.00 | 0.23 | 0.23 | 76 | 1011.7 |
| 20260906024153 | 27 | 182 | 0.0 | 0.0 | 0.00 | 0.23 | 0.23 | 76 | 1011.5 |
| 20260906023649 | 27 | 182 | 0.0 | 0.0 | 0.00 | 0.23 | 0.23 | 76 | 1011.4 |
| 20260906023149 | 27 | 182 | 0.0 | 0.0 | 0.00 | 0.23 | 0.23 | 77 | 1011.6 |
| 20260906022644 | 28 | 182 | 0.0 | 0.0 | 0.00 | 0.23 | 0.23 | 77 | 1011.4 |
| 20260906022140 | 28 | 182 | 0.0 | 0.0 | 0.00 | 0.23 | 0.23 | 76 | 1011.1 |
| 20260906021636 | 28 | 182 | 0.0 | 0.0 | 0.00 | 0.23 | 0.23 | 77 | 1010.9 |
| 20260906021134 | 28 | 182 | 0.0 | 0.0 | 0.00 | 0.23 | 0.23 | 76 | 1011.2 |
| 20260906020634 | 28 | 182 | 0.0 | 0.0 | 0.00 | 0.23 | 0.23 | 78 | 1011.0 |
| 20260906020129 | 28 | 181 | 0.0 | 0.0 | 0.00 | 0.23 | 0.23 | 78 | 1011.0 |
| 20260906015624 | 28 | 182 | 0.0 | 0.0 | 0.00 | 0.23 | 0.23 | 77 | 1010.9 |
| 20260906015122 | 28 | 181 | 0.0 | 0.0 | 0.00 | 0.23 | 0.23 | 77 | 1010.8 |
| 20260906014623 | 28 | 182 | 0.0 | 0.0 | 0.00 | 0.23 | 0.23 | 76 | 1011.0 |
| 20260906014119 | 29 | 181 | 0.0 | 0.0 | 0.00 | 0.23 | 0.23 | 75 | 1011.0 |
| 20260906013614 | 30 | 182 | 0.0 | 0.0 | 0.00 | 0.23 | 0.23 | 72 | 1010.8 |
| 20260906013109 | 29 | 179 | 1.6 | 1.6 | 0.00 | 0.23 | 0.23 | 71 | 1011.1 |
| 20260906012605 | 29 | 196 | 0.0 | 1.6 | 0.00 | 0.23 | 0.23 | 73 | 1011.1 |
| 20260906012105 | 30 | 179 | 1.6 | 1.6 | 0.00 | 0.23 | 0.23 | 72 | 1011.1 |
| 20260906011601 | 30 | 203 | 0.0 | 0.0 | 0.00 | 0.23 | 0.23 | 72 | 1011.0 |
| 20260906011101 | 29 | 203 | 0.0 | 0.0 | 0.00 | 0.23 | 0.23 | 71 | 1010.9 |
| 20260906010556 | 29 | 203 | 0.0 | 0.0 | 0.00 | 0.23 | 0.23 | 73 | 1010.7 |
| 20260906010052 | 29 | 203 | 0.0 | 0.0 | 0.00 | 0.23 | 0.23 | 71 | 1010.6 |
| 20260906005551 | 29 | 203 | 0.0 | 0.0 | 0.00 | 0.23 | 0.23 | 71 | 1010.7 |
| 20260906005051 | 29 | 203 | 0.0 | 0.0 | 0.00 | 0.23 | 0.23 | 71 | 1010.7 |
| 20260906004550 | 29 | 203 | 0.0 | 0.0 | 0.00 | 0.23 | 0.23 | 72 | 1010.6 |
| 20260906004045 | 30 | 203 | 0.0 | 0.0 | 0.00 | 0.23 | 0.23 | 73 | 1010.6 |
| 20260906003540 | 30 | 203 | 0.0 | 0.0 | 0.00 | 0.23 | 0.23 | 71 | 1010.5 |
| 20260906003037 | 29 | 203 | 0.0 | 1.6 | 0.00 | 0.23 | 0.23 | 71 | 1010.4 |
| 20260906002537 | 29 | 203 | 0.0 | 0.0 | 0.00 | 0.23 | 0.23 | 73 | 1010.5 |
| 20260906002031 | 29 | 203 | 0.0 | 0.0 | 0.00 | 0.23 | 0.23 | 74 | 1010.5 |
| 20260906001527 | 29 | 203 | 0.0 | 0.0 | 0.00 | 0.23 | 0.23 | 74 | 1010.7 |
| 20260906001021 | 29 | 203 | 0.0 | 0.0 | 0.00 | 0.23 | 0.23 | 74 | 1010.5 |
| 20260906000517 | 29 | 203 | 0.0 | 0.0 | 0.00 | 0.23 | 0.23 | 71 | 1010.6 |
| 20260906000012 | 30 | 203 | 0.0 | 0.0 | 0.00 | 0.23 | 0.23 | 73 | 1010.7 |
| 20260905235511 | 30 | 203 | 0.0 | 0.0 | 0.00 | 0.23 | 0.23 | 70 | 1010.9 |
| 20260905235007 | 30 | 203 | 0.0 | 0.0 | 0.00 | 0.23 | 0.23 | 70 | 1010.7 |
| 20260905234503 | 30 | 203 | 0.0 | 0.0 | 0.00 | 0.23 | 0.23 | 70 | 1010.8 |
| 20260905234002 | 30 | 203 | 0.0 | 0.0 | 0.00 | 0.23 | 0.23 | 70 | 1010.9 |
| 20260905233458 | 30 | 203 | 0.0 | 0.0 | 0.00 | 0.23 | 0.23 | 70 | 1011.0 |
| 20260905232956 | 30 | 203 | 0.0 | 0.0 | 0.00 | 0.23 | 0.23 | 68 | 1010.7 |
| 20260905232453 | 30 | 203 | 0.0 | 0.0 | 0.00 | 0.23 | 0.23 | 66 | 1010.7 |
| 20260905231948 | 30 | 203 | 0.0 | 0.0 | 0.00 | 0.23 | 0.23 | 70 | 1010.6 |
| 20260905231444 | 30 | 203 | 0.0 | 0.0 | 0.00 | 0.23 | 0.23 | 72 | 1010.6 |
| 20260905230940 | 30 | 203 | 0.0 | 0.0 | 0.00 | 0.23 | 0.23 | 72 | 1010.5 |
| 20260905230438 | 30 | 200 | 0.0 | 0.0 | 0.00 | 0.23 | 0.23 | 74 | 1010.5 |
| 20260905225937 | 30 | 200 | 0.0 | 0.0 | 0.00 | 0.23 | 0.23 | 72 | 1010.4 |
| 20260905225432 | 30 | 200 | 0.0 | 0.0 | 0.00 | 0.23 | 0.23 | 74 | 1010.5 |
| 20260905224927 | 30 | 200 | 0.0 | 0.0 | 0.00 | 0.23 | 0.23 | 77 | 1010.4 |
| 20260905224423 | 29 | 200 | 0.0 | 0.0 | 0.00 | 0.23 | 0.23 | 81 | 1010.3 |
| 20260905223922 | 28 | 200 | 0.0 | 0.0 | 0.00 | 0.23 | 0.23 | 83 | 1010.4 |
| 20260905223420 | 28 | 200 | 0.0 | 0.0 | 0.00 | 0.23 | 0.23 | 83 | 1010.3 |
| 20260905222921 | 27 | 200 | 0.0 | 0.0 | 0.00 | 0.23 | 0.23 | 84 | 1010.2 |
| 20260905222420 | 27 | 200 | 0.0 | 0.0 | 0.00 | 0.23 | 0.23 | 86 | 1010.2 |
| 20260905221916 | 27 | 200 | 0.0 | 0.0 | 0.00 | 0.23 | 0.23 | 86 | 1010.2 |
| 20260905221412 | 27 | 200 | 0.0 | 1.6 | 0.00 | 0.23 | 0.23 | 87 | 1010.4 |
| 20260905220908 | 28 | 200 | 0.0 | 0.0 | 0.00 | 0.23 | 0.23 | 85 | 1010.4 |
| 20260905220404 | 27 | 200 | 0.0 | 1.6 | 0.00 | 0.23 | 0.23 | 81 | 1010.2 |
| 20260905215903 | 28 | 200 | 0.0 | 1.6 | 0.79 | 0.23 | 0.23 | 78 | 1010.3 |
| 20260905215359 | 30 | 245 | 1.6 | 3.2 | 1.37 | 0.23 | 0.23 | 71 | 1010.4 |
| 20260905214855 | 32 | 330 | 8.0 | 9.7 | 0.71 | 0.13 | 0.13 | 63 | 1010.6 |
| 20260905214350 | 35 | 304 | 3.2 | 6.4 | 0.00 | 0.00 | 0.00 | 55 | 1010.3 |
| 20260905213845 | 37 | 289 | 0.0 | 0.0 | 0.00 | 0.00 | 0.00 | 42 | 1010.0 |
| 20260905213342 | 37 | 331 | 3.2 | 3.2 | 0.00 | 0.00 | 0.00 | 39 | 1010.2 |
| 20260905212841 | 37 | 307 | 1.6 | 1.6 | 0.00 | 0.00 | 0.00 | 41 | 1010.3 |
| 20260905212336 | 37 | 358 | 6.4 | 6.4 | 0.00 | 0.00 | 0.00 | 40 | 1009.9 |
| 20260905211836 | 37 | 255 | 0.0 | 0.0 | 0.00 | 0.00 | 0.00 | 41 | 1010.0 |
| 20260905211331 | 37 | 348 | 1.6 | 1.6 | 0.00 | 0.00 | 0.00 | 41 | 1010.1 |
| 20260905210828 | 37 | 255 | 0.0 | 1.6 | 0.00 | 0.00 | 0.00 | 40 | 1010.0 |
| 20260905210328 | 37 | 232 | 1.6 | 3.2 | 0.00 | 0.00 | 0.00 | 40 | 1010.2 |
| 20260905205827 | 37 | 252 | 3.2 | 3.2 | 0.00 | 0.00 | 0.00 | 39 | 1010.3 |
| 20260905205327 | 37 | 213 | 3.2 | 4.8 | 0.00 | 0.00 | 0.00 | 39 | 1010.4 |
| 20260905204826 | 37 | 207 | 1.6 | 1.6 | 0.00 | 0.00 | 0.00 | 42 | 1010.6 |
| 20260905204323 | 37 | 321 | 0.0 | 1.6 | 0.00 | 0.00 | 0.00 | 40 | 1010.5 |
| 20260905203821 | 37 | 245 | 4.8 | 6.4 | 0.00 | 0.00 | 0.00 | 40 | 1010.5 |
| 20260905203317 | 37 | 324 | 3.2 | 4.8 | 0.00 | 0.00 | 0.00 | 39 | 1010.7 |
| 20260905202813 | 37 | 285 | 4.8 | 6.4 | 0.00 | 0.00 | 0.00 | 41 | 1010.8 |
| 20260905202307 | 37 | 336 | 3.2 | 4.8 | 0.00 | 0.00 | 0.00 | 42 | 1010.7 |
| 20260905201803 | 37 | 316 | 0.0 | 0.0 | 0.00 | 0.00 | 0.00 | 43 | 1010.7 |
| 20260905201258 | 37 | 238 | 0.0 | 0.0 | 0.00 | 0.00 | 0.00 | 42 | 1010.8 |
| 20260905200753 | 37 | 212 | 0.0 | 0.0 | 0.00 | 0.00 | 0.00 | 40 | 1011.0 |
| 20260905200249 | 37 | 306 | 4.8 | 6.4 | 0.00 | 0.00 | 0.00 | 40 | 1011.0 |
| 20260905195746 | 37 | 9 | 4.8 | 6.4 | 0.00 | 0.00 | 0.00 | 40 | 1011.1 |
| 20260905195242 | 37 | 333 | 0.0 | 0.0 | 0.00 | 0.00 | 0.00 | 41 | 1011.2 |
| 20260905194737 | 37 | 337 | 0.0 | 0.0 | 0.00 | 0.00 | 0.00 | 41 | 1011.0 |
| 20260905194236 | 38 | 265 | 0.0 | 1.6 | 0.00 | 0.00 | 0.00 | 40 | 1011.2 |
| 20260905193736 | 37 | 326 | 3.2 | 3.2 | 0.00 | 0.00 | 0.00 | 40 | 1011.4 |
| 20260905193232 | 37 | 230 | 1.6 | 1.6 | 0.00 | 0.00 | 0.00 | 43 | 1011.5 |
| 20260905192727 | 36 | 325 | 3.2 | 3.2 | 0.00 | 0.00 | 0.00 | 44 | 1011.6 |
| 20260905192223 | 37 | 307 | 4.8 | 6.4 | 0.00 | 0.00 | 0.00 | 43 | 1011.7 |
| 20260905191722 | 37 | 294 | 0.0 | 1.6 | 0.00 | 0.00 | 0.00 | 42 | 1011.8 |
| 20260905191220 | 37 | 245 | 0.0 | 0.0 | 0.00 | 0.00 | 0.00 | 44 | 1011.7 |
| 20260905190719 | 37 | 236 | 1.6 | 1.6 | 0.00 | 0.00 | 0.00 | 45 | 1011.9 |
| 20260905190218 | 37 | 305 | 3.2 | 3.2 | 0.00 | 0.00 | 0.00 | 43 | 1011.7 |
| 20260905185718 | 37 | 321 | 4.8 | 4.8 | 0.00 | 0.00 | 0.00 | 44 | 1011.9 |
| 20260905185212 | 37 | 308 | 3.2 | 3.2 | 0.00 | 0.00 | 0.00 | 44 | 1012.0 |
| 20260905184707 | 36 | 48 | 1.6 | 3.2 | 0.00 | 0.00 | 0.00 | 47 | 1012.3 |
| 20260905184206 | 37 | 250 | 3.2 | 3.2 | 0.00 | 0.00 | 0.00 | 46 | 1012.1 |
| 20260905183706 | 38 | 234 | 1.6 | 1.6 | 0.00 | 0.00 | 0.00 | 44 | 1012.2 |
| 20260905183201 | 37 | 269 | 1.6 | 1.6 | 0.00 | 0.00 | 0.00 | 45 | 1012.2 |
| 20260905182700 | 37 | 216 | 0.0 | 0.0 | 0.00 | 0.00 | 0.00 | 45 | 1012.3 |
| 20260905182200 | 37 | 287 | 3.2 | 3.2 | 0.00 | 0.00 | 0.00 | 45 | 1012.4 |
| 20260905181656 | 37 | 201 | 1.6 | 1.6 | 0.00 | 0.00 | 0.00 | 44 | 1012.4 |
| 20260905181154 | 37 | 282 | 1.6 | 1.6 | 0.00 | 0.00 | 0.00 | 46 | 1012.4 |
| 20260905180649 | 36 | 240 | 1.6 | 1.6 | 0.00 | 0.00 | 0.00 | 47 | 1012.6 |
| 20260905180145 | 37 | 210 | 1.6 | 3.2 | 0.00 | 0.00 | 0.00 | 47 | 1012.8 |
| 20260905175643 | 37 | 237 | 0.0 | 0.0 | 0.00 | 0.00 | 0.00 | 47 | 1012.9 |
| 20260905175139 | 36 | 281 | 1.6 | 3.2 | 0.00 | 0.00 | 0.00 | 48 | 1012.9 |
| 20260905174635 | 36 | 257 | 1.6 | 3.2 | 0.00 | 0.00 | 0.00 | 48 | 1012.7 |
| 20260905174130 | 37 | 226 | 1.6 | 1.6 | 0.00 | 0.00 | 0.00 | 50 | 1012.8 |
| 20260905173626 | 36 | 242 | 0.0 | 1.6 | 0.00 | 0.00 | 0.00 | 47 | 1013.0 |
| 20260905173122 | 36 | 350 | 3.2 | 3.2 | 0.00 | 0.00 | 0.00 | 49 | 1012.9 |
| 20260905172620 | 36 | 273 | 1.6 | 3.2 | 0.00 | 0.00 | 0.00 | 49 | 1013.1 |
| 20260905172115 | 36 | 193 | 1.6 | 3.2 | 0.00 | 0.00 | 0.00 | 51 | 1013.3 |
| 20260905171612 | 36 | 187 | 1.6 | 3.2 | 0.00 | 0.00 | 0.00 | 50 | 1013.2 |
| 20260905171108 | 36 | 356 | 1.6 | 3.2 | 0.00 | 0.00 | 0.00 | 50 | 1013.1 |
| 20260905170604 | 36 | 132 | 1.6 | 1.6 | 0.00 | 0.00 | 0.00 | 49 | 1013.3 |
| 20260905170059 | 36 | 202 | 0.0 | 1.6 | 0.00 | 0.00 | 0.00 | 52 | 1013.3 |
| 20260905165554 | 36 | 355 | 0.0 | 0.0 | 0.00 | 0.00 | 0.00 | 51 | 1013.5 |
| 20260905165049 | 36 | 297 | 3.2 | 4.8 | 0.00 | 0.00 | 0.00 | 52 | 1013.4 |
| 20260905164544 | 36 | 216 | 1.6 | 1.6 | 0.00 | 0.00 | 0.00 | 53 | 1013.4 |
| 20260905164038 | 36 | 211 | 0.0 | 0.0 | 0.00 | 0.00 | 0.00 | 52 | 1013.7 |
| 20260905163534 | 36 | 203 | 1.6 | 1.6 | 0.00 | 0.00 | 0.00 | 52 | 1013.7 |
| 20260905163030 | 35 | 190 | 0.0 | 0.0 | 0.00 | 0.00 | 0.00 | 53 | 1013.9 |
| 20260905162526 | 35 | 240 | 1.6 | 3.2 | 0.00 | 0.00 | 0.00 | 54 | 1014.1 |
| 20260905162021 | 35 | 319 | 3.2 | 3.2 | 0.00 | 0.00 | 0.00 | 55 | 1014.2 |
| 20260905161520 | 35 | 338 | 3.2 | 3.2 | 0.00 | 0.00 | 0.00 | 53 | 1014.0 |
| 20260905161018 | 35 | 322 | 4.8 | 6.4 | 0.00 | 0.00 | 0.00 | 53 | 1014.3 |
| 20260905160517 | 35 | 321 | 0.0 | 3.2 | 0.00 | 0.00 | 0.00 | 55 | 1014.2 |
| 20260905160012 | 35 | 224 | 1.6 | 1.6 | 0.00 | 0.00 | 0.00 | 56 | 1014.1 |
| 20260905155511 | 35 | 227 | 0.0 | 1.6 | 0.00 | 0.00 | 0.00 | 56 | 1014.1 |
| 20260905155009 | 35 | 230 | 0.0 | 0.0 | 0.00 | 0.00 | 0.00 | 57 | 1013.9 |
| 20260905154505 | 35 | 321 | 0.0 | 0.0 | 0.00 | 0.00 | 0.00 | 56 | 1014.0 |
| 20260905154000 | 35 | 249 | 0.0 | 0.0 | 0.00 | 0.00 | 0.00 | 57 | 1014.1 |
| 20260905153457 | 35 | 157 | 0.0 | 0.0 | 0.00 | 0.00 | 0.00 | 59 | 1014.1 |
| 20260905152956 | 34 | 230 | 0.0 | 0.0 | 0.00 | 0.00 | 0.00 | 57 | 1014.1 |
| 20260905152456 | 33 | 231 | 0.0 | 0.0 | 0.00 | 0.00 | 0.00 | 59 | 1014.2 |
| 20260905151957 | 34 | 194 | 0.0 | 0.0 | 0.00 | 0.00 | 0.00 | 62 | 1014.1 |
| 20260905151452 | 34 | 202 | 0.0 | 0.0 | 0.00 | 0.00 | 0.00 | 59 | 1014.2 |
| 20260905150947 | 34 | 183 | 0.0 | 0.0 | 0.00 | 0.00 | 0.00 | 59 | 1014.1 |
| 20260905150442 | 33 | 182 | 1.6 | 1.6 | 0.00 | 0.00 | 0.00 | 59 | 1014.1 |
| 20260905145938 | 33 | 182 | 1.6 | 1.6 | 0.00 | 0.00 | 0.00 | 60 | 1014.1 |
| 20260905145433 | 33 | 185 | 1.6 | 1.6 | 0.00 | 0.00 | 0.00 | 63 | 1014.2 |
| 20260905144932 | 33 | 189 | 1.6 | 1.6 | 0.00 | 0.00 | 0.00 | 62 | 1014.2 |
| 20260905144429 | 32 | 168 | 1.6 | 3.2 | 0.00 | 0.00 | 0.00 | 63 | 1014.1 |
| 20260905143927 | 32 | 159 | 0.0 | 1.6 | 0.00 | 0.00 | 0.00 | 65 | 1014.0 |
| 20260905143427 | 32 | 188 | 3.2 | 3.2 | 0.00 | 0.00 | 0.00 | 68 | 1014.2 |
| 20260905142926 | 32 | 182 | 0.0 | 1.6 | 0.00 | 0.00 | 0.00 | 67 | 1014.3 |
| 20260905142425 | 32 | 165 | 0.0 | 1.6 | 0.00 | 0.00 | 0.00 | 64 | 1014.1 |
| 20260905141921 | 32 | 183 | 1.6 | 1.6 | 0.00 | 0.00 | 0.00 | 67 | 1014.1 |
| 20260905141416 | 31 | 179 | 0.0 | 0.0 | 0.00 | 0.00 | 0.00 | 69 | 1014.4 |
| 20260905140912 | 31 | 169 | 1.6 | 1.6 | 0.00 | 0.00 | 0.00 | 69 | 1014.3 |
| 20260905140407 | 31 | 165 | 0.0 | 1.6 | 0.00 | 0.00 | 0.00 | 69 | 1014.5 |
| 20260905135906 | 32 | 173 | 1.6 | 1.6 | 0.00 | 0.00 | 0.00 | 66 | 1014.4 |
| 20260905135402 | 32 | 83 | 0.0 | 1.6 | 0.00 | 0.00 | 0.00 | 65 | 1014.4 |
| 20260905134857 | 31 | 83 | 0.0 | 1.6 | 0.00 | 0.00 | 0.00 | 66 | 1014.4 |
| 20260905134355 | 30 | 123 | 0.0 | 0.0 | 0.00 | 0.00 | 0.00 | 68 | 1014.3 |
| 20260905133850 | 30 | 171 | 0.0 | 0.0 | 0.00 | 0.00 | 0.00 | 69 | 1014.3 |
| 20260905133346 | 30 | 170 | 0.0 | 0.0 | 0.00 | 0.00 | 0.00 | 70 | 1014.3 |
| 20260905132845 | 30 | 170 | 0.0 | 1.6 | 0.00 | 0.00 | 0.00 | 70 | 1014.4 |
| 20260905132340 | 29 | 170 | 0.0 | 0.0 | 0.00 | 0.00 | 0.00 | 73 | 1014.4 |
| 20260905131835 | 28 | 170 | 0.0 | 1.6 | 0.00 | 0.00 | 0.00 | 78 | 1014.4 |
| 20260905131330 | 28 | 170 | 0.0 | 0.0 | 0.00 | 0.00 | 0.00 | 79 | 1014.5 |
| 20260905130826 | 28 | 170 | 0.0 | 0.0 | 0.00 | 0.00 | 0.00 | 81 | 1014.5 |
| 20260905130324 | 28 | 170 | 0.0 | 1.6 | 0.00 | 0.00 | 0.00 | 82 | 1014.5 |
| 20260905125820 | 27 | 238 | 1.6 | 1.6 | 0.00 | 0.00 | 0.00 | 82 | 1014.5 |
| 20260905125315 | 27 | 170 | 0.0 | 0.0 | 0.00 | 0.00 | 0.00 | 84 | 1014.4 |
| 20260905124811 | 27 | 232 | 0.0 | 0.0 | 0.00 | 0.00 | 0.00 | 84 | 1014.5 |
| 20260905124307 | 27 | 232 | 1.6 | 1.6 | 0.00 | 0.00 | 0.00 | 85 | 1014.4 |
| 20260905123801 | 26 | 175 | 1.6 | 1.6 | 0.00 | 0.00 | 0.00 | 86 | 1014.4 |
| 20260905123259 | 26 | 175 | 1.6 | 1.6 | 0.00 | 0.00 | 0.00 | 86 | 1014.4 |
| 20260905122758 | 26 | 170 | 1.6 | 1.6 | 0.00 | 0.00 | 0.00 | 86 | 1014.4 |
| 20260905122257 | 25 | 185 | 0.0 | 1.6 | 0.00 | 0.00 | 0.00 | 89 | 1014.3 |
| 20260905121753 | 25 | 186 | 0.0 | 0.0 | 0.00 | 0.00 | 0.00 | 91 | 1014.4 |
| 20260905121250 | 25 | 186 | 0.0 | 0.0 | 0.00 | 0.00 | 0.00 | 92 | 1014.3 |
| 20260905120748 | 25 | 186 | 0.0 | 0.0 | 0.00 | 0.00 | 0.00 | 93 | 1014.2 |
| 20260905120247 | 24 | 186 | 0.0 | 0.0 | 0.00 | 0.00 | 0.00 | 93 | 1014.4 |
| 20260905115743 | 24 | 186 | 0.0 | 0.0 | 0.00 | 0.00 | 0.00 | 94 | 1014.1 |
| 20260905115242 | 24 | 186 | 0.0 | 0.0 | 0.00 | 0.00 | 0.00 | 94 | 1014.2 |
| 20260905114742 | 24 | 186 | 0.0 | 0.0 | 0.00 | 0.00 | 0.00 | 94 | 1014.2 |
| 20260905114241 | 24 | 186 | 0.0 | 0.0 | 0.00 | 0.00 | 0.00 | 94 | 1014.1 |
| 20260905113740 | 24 | 186 | 0.0 | 0.0 | 0.00 | 0.00 | 0.00 | 94 | 1013.8 |
| 20260905113236 | 24 | 186 | 0.0 | 0.0 | 0.00 | 0.00 | 0.00 | 94 | 1013.9 |
| 20260905112731 | 24 | 186 | 0.0 | 0.0 | 0.00 | 0.00 | 0.00 | 94 | 1013.6 |
| 20260905112226 | 24 | 186 | 0.0 | 0.0 | 0.00 | 0.00 | 0.00 | 94 | 1013.9 |
| 20260905111721 | 24 | 186 | 0.0 | 0.0 | 0.00 | 0.00 | 0.00 | 94 | 1013.7 |
| 20260905111221 | 24 | 186 | 0.0 | 0.0 | 0.00 | 0.00 | 0.00 | 94 | 1013.6 |
| 20260905110720 | 24 | 186 | 0.0 | 0.0 | 0.00 | 0.00 | 0.00 | 94 | 1013.6 |
| 20260905110214 | 24 | 186 | 0.0 | 0.0 | 0.00 | 0.00 | 0.00 | 93 | 1013.5 |
| 20260905105710 | 24 | 186 | 0.0 | 0.0 | 0.00 | 0.00 | 0.00 | 93 | 1013.5 |
| 20260905105208 | 24 | 186 | 0.0 | 0.0 | 0.00 | 0.00 | 0.00 | 93 | 1013.6 |